Time,TemperatureF,DewpointF,PressureIn,WindDirection,WindDirectionDegrees,WindSpeedMPH,WindSpeedGustMPH,Humidity,HourlyPrecipIn,Conditions,Clouds,dailyrainin,SoftwareType,DateUTC
2013-04-27 21:28:00,56.3,50.9,30.05,SE,135,0.0,1.6,82,0.00,,,0.00,WUHU216EASYWX,2013-04-28 02:28:00,
2013-04-27 21:33:00,56.3,50.9,30.05,SE,135,0.0,1.6,82,0.00,,,0.00,WUHU216EASYWX,2013-04-28 02:33:00,
2013-04-27 21:38:00,56.3,50.5,30.06,North,0,0.0,1.6,81,0.00,,,0.00,WUHU216EASYWX,2013-04-28 02:38:00,
2013-04-27 21:39:00,56.3,50.5,30.06,North,0,0.0,1.6,81,0.00,,,0.00,WUHU216EASYWX,2013-04-28 02:39:00,
2013-04-27 21:43:00,56.3,50.5,30.06,East,90,0.0,0.0,81,0.00,,,0.00,WUHU216EASYWX,2013-04-28 02:43:00,
2013-04-27 21:44:00,56.3,50.5,30.06,East,90,0.0,0.0,81,0.00,,,0.00,WUHU216EASYWX,2013-04-28 02:44:00,
2013-04-27 21:48:00,56.3,50.5,30.06,NE,45,0.0,0.7,81,0.00,,,0.00,WUHU216EASYWX,2013-04-28 02:48:00,
2013-04-27 21:49:00,56.3,50.5,30.06,NE,45,0.0,0.7,81,0.00,,,0.00,WUHU216EASYWX,2013-04-28 02:49:00,
2013-04-27 21:54:00,56.3,50.2,30.06,NE,45,0.0,0.7,80,0.00,,,0.00,WUHU216EASYWX,2013-04-28 02:54:00,
2013-04-27 21:59:00,56.3,50.2,30.06,South,180,0.0,1.6,80,0.00,,,0.00,WUHU216EASYWX,2013-04-28 02:59:00,
2013-04-27 22:04:00,56.3,50.2,30.06,NW,315,0.0,1.6,80,0.00,,,0.00,WUHU216EASYWX,2013-04-28 03:04:00,
2013-04-27 22:05:00,56.3,50.2,30.06,NW,315,0.0,1.6,80,0.00,,,0.00,WUHU216EASYWX,2013-04-28 03:05:00,
2013-04-27 22:09:00,56.3,50.2,30.06,West,270,0.0,1.6,80,0.00,,,0.00,WUHU216EASYWX,2013-04-28 03:09:00,
2013-04-27 22:10:00,56.3,50.2,30.06,West,270,0.0,1.6,80,0.00,,,0.00,WUHU216EASYWX,2013-04-28 03:10:00,
2013-04-27 22:14:00,56.3,50.2,30.06,NW,315,0.0,0.7,80,0.00,,,0.00,WUHU216EASYWX,2013-04-28 03:14:00,
2013-04-27 22:15:00,56.3,50.2,30.06,NW,315,0.0,0.7,80,0.00,,,0.00,WUHU216EASYWX,2013-04-28 03:15:00,
2013-04-27 22:19:00,56.1,50.0,30.06,NE,45,0.0,1.6,80,0.00,,,0.00,WUHU216EASYWX,2013-04-28 03:19:00,
2013-04-27 22:20:00,56.1,50.0,30.06,NE,45,0.0,1.6,80,0.00,,,0.00,WUHU216EASYWX,2013-04-28 03:20:00,
2013-04-27 22:21:00,56.1,50.0,30.06,NE,45,0.0,1.6,80,0.00,,,0.00,WUHU216EASYWX,2013-04-28 03:21:00,
2013-04-27 22:24:00,56.1,50.0,30.06,NW,315,0.0,1.6,80,0.00,,,0.00,WUHU216EASYWX,2013-04-28 03:24:00,
2013-04-27 22:25:00,56.1,50.0,30.06,NW,315,0.0,1.6,80,0.00,,,0.00,WUHU216EASYWX,2013-04-28 03:25:00,
2013-04-27 22:26:00,56.1,50.0,30.06,NW,315,0.0,1.6,80,0.00,,,0.00,WUHU216EASYWX,2013-04-28 03:26:00,
2013-04-27 22:30:00,56.1,50.0,30.06,West,270,0.0,0.0,80,0.00,,,0.00,WUHU216EASYWX,2013-04-28 03:30:00,
2013-04-27 22:31:00,56.1,50.0,30.06,West,270,0.0,0.0,80,0.00,,,0.00,WUHU216EASYWX,2013-04-28 03:31:00,
2013-04-27 22:35:00,56.3,50.2,30.06,SW,225,0.0,0.0,80,0.00,,,0.00,WUHU216EASYWX,2013-04-28 03:35:00,
2013-04-27 22:36:00,56.3,50.2,30.06,SW,225,0.0,0.0,80,0.00,,,0.00,WUHU216EASYWX,2013-04-28 03:36:00,
2013-04-27 22:40:00,56.1,50.0,30.06,NE,45,0.7,1.6,80,0.00,,,0.00,WUHU216EASYWX,2013-04-28 03:40:00,
2013-04-27 22:41:00,56.1,50.0,30.06,NE,45,0.7,1.6,80,0.00,,,0.00,WUHU216EASYWX,2013-04-28 03:41:00,
2013-04-27 22:46:00,56.1,50.0,30.06,East,90,0.0,1.6,80,0.00,,,0.00,WUHU216EASYWX,2013-04-28 03:46:00,
2013-04-27 22:51:00,56.1,50.0,30.06,SE,135,0.7,2.2,80,0.00,,,0.00,WUHU216EASYWX,2013-04-28 03:51:00,
2013-04-27 22:56:00,56.3,50.2,30.05,NE,45,0.7,3.1,80,0.00,,,0.00,WUHU216EASYWX,2013-04-28 03:56:00,
2013-04-27 23:01:00,56.1,49.6,30.06,NE,45,0.0,3.1,79,0.00,,,0.00,WUHU216EASYWX,2013-04-28 04:01:00,
2013-04-27 23:06:00,56.3,49.8,30.05,East,90,0.0,1.6,79,0.00,,,0.00,WUHU216EASYWX,2013-04-28 04:06:00,
2013-04-27 23:11:00,56.3,50.2,30.06,East,90,0.7,1.6,80,0.00,,,0.00,WUHU216EASYWX,2013-04-28 04:11:00,
2013-04-27 23:12:00,56.3,50.2,30.06,East,90,0.7,1.6,80,0.00,,,0.00,WUHU216EASYWX,2013-04-28 04:12:00,
2013-04-27 23:16:00,56.1,50.0,30.05,NE,45,0.0,1.6,80,0.00,,,0.00,WUHU216EASYWX,2013-04-28 04:16:00,
2013-04-27 23:17:00,56.1,50.0,30.05,NE,45,0.0,1.6,80,0.00,,,0.00,WUHU216EASYWX,2013-04-28 04:17:00,
2013-04-27 23:21:00,56.1,50.0,30.05,West,270,0.0,0.7,80,0.00,,,0.00,WUHU216EASYWX,2013-04-28 04:21:00,
2013-04-27 23:22:00,56.1,50.0,30.05,West,270,0.0,0.7,80,0.00,,,0.00,WUHU216EASYWX,2013-04-28 04:22:00,
2013-04-27 23:26:00,56.1,50.0,30.05,East,90,0.0,0.7,80,0.00,,,0.00,WUHU216EASYWX,2013-04-28 04:26:00,
2013-04-27 23:27:00,56.1,50.0,30.05,East,90,0.0,0.7,80,0.00,,,0.00,WUHU216EASYWX,2013-04-28 04:27:00,
2013-04-27 23:28:00,56.1,50.0,30.05,East,90,0.0,1.6,80,0.00,,,0.00,WUHU216EASYWX,2013-04-28 04:28:00,
2013-04-27 23:31:00,56.1,50.0,30.05,East,90,0.0,1.6,80,0.00,,,0.00,WUHU216EASYWX,2013-04-28 04:31:00,
2013-04-27 23:32:00,56.1,50.0,30.05,East,90,0.0,1.6,80,0.00,,,0.00,WUHU216EASYWX,2013-04-28 04:32:00,
2013-04-27 23:33:00,56.1,50.0,30.05,East,90,0.0,1.6,80,0.00,,,0.00,WUHU216EASYWX,2013-04-28 04:33:00,
2013-04-27 23:36:00,56.1,50.4,30.05,NE,45,0.7,1.6,81,0.00,,,0.00,WUHU216EASYWX,2013-04-28 04:36:00,
2013-04-27 23:37:00,56.1,50.4,30.05,NE,45,0.7,1.6,81,0.00,,,0.00,WUHU216EASYWX,2013-04-28 04:37:00,
2013-04-27 23:38:00,56.1,50.4,30.05,NE,45,0.7,1.6,81,0.00,,,0.00,WUHU216EASYWX,2013-04-28 04:38:00,
2013-04-27 23:42:00,55.9,50.2,30.04,East,90,0.7,2.2,81,0.00,,,0.00,WUHU216EASYWX,2013-04-28 04:42:00,
2013-04-27 23:43:00,55.9,50.2,30.04,East,90,0.7,2.2,81,0.00,,,0.00,WUHU216EASYWX,2013-04-28 04:43:00,
2013-04-27 23:47:00,55.9,50.2,30.04,East,90,0.0,2.2,81,0.00,,,0.00,WUHU216EASYWX,2013-04-28 04:47:00,
2013-04-27 23:48:00,55.9,50.2,30.04,East,90,0.0,0.7,81,0.00,,,0.00,WUHU216EASYWX,2013-04-28 04:48:00,
2013-04-27 23:52:00,55.8,50.0,30.04,East,90,0.0,0.7,81,0.00,,,0.00,WUHU216EASYWX,2013-04-28 04:52:00,
2013-04-27 23:53:00,55.9,50.2,30.04,NE,45,0.7,1.6,81,0.00,,,0.00,WUHU216EASYWX,2013-04-28 04:53:00,
2013-04-27 23:57:00,55.9,50.2,30.04,NE,45,0.7,1.6,81,0.00,,,0.00,WUHU216EASYWX,2013-04-28 04:57:00,
2013-04-27 23:58:00,55.9,50.2,30.04,NE,45,0.0,1.6,81,0.00,,,0.00,WUHU216EASYWX,2013-04-28 04:58:00,
2013-04-27 23:59:00,55.9,50.2,30.04,NE,45,0.0,1.6,81,0.00,,,0.00,WUHU216EASYWX,2013-04-28 04:59:00,